Total_Precipitation_Accumulation
0.77 0.58 0.43 0.45 0.38 0.31 0.24 0.16 0.09 0.04 0.01 0.01 0.01 0.01 0.01 0.02 0.03 0.04 0.06 0.07 0.10 0.10 0.06 0.05 0.05 0.02 0.02 0.03 0.10 0.19 0.27 0.28 0.40 0.47 0.46 0.45 0.39 0.30 0.19 0.09 0.06 0.04 0.03
0.76 0.68 0.49 0.44 0.47 0.48 0.48 0.38 0.20 0.10 0.05 0.03 0.03 0.02 0.02 0.01 0.01 0.02 0.04 0.05 0.07 0.11 0.11 0.13 0.11 0.07 0.06 0.05 0.09 0.17 0.25 0.26 0.31 0.39 0.47 0.56 0.59 0.44 0.26 0.12 0.11 0.09 0.06
0.70 0.74 0.63 0.49 0.45 0.57 0.63 0.54 0.38 0.22 0.11 0.05 0.03 0.03 0.02 0.01 0.01 0.01 0.01 0.03 0.04 0.12 0.18 0.23 0.24 0.20 0.15 0.13 0.13 0.17 0.22 0.24 0.26 0.32 0.37 0.39 0.40 0.41 0.35 0.25 0.22 0.20 0.18
0.81 0.87 0.81 0.64 0.55 0.64 0.72 0.69 0.55 0.40 0.23 0.11 0.05 0.04 0.04 0.03 0.02 0.02 0.01 0.00 0.01 0.05 0.12 0.20 0.30 0.37 0.33 0.25 0.17 0.14 0.14 0.15 0.16 0.19 0.19 0.19 0.20 0.23 0.28 0.28 0.30 0.34 0.34
0.81 0.89 0.96 0.91 0.85 0.83 0.81 0.77 0.62 0.48 0.33 0.21 0.12 0.07 0.04 0.02 0.02 0.02 0.01 0.01 0.00 0.00 0.02 0.04 0.12 0.14 0.23 0.31 0.22 0.13 0.11 0.09 0.09 0.09 0.10 0.09 0.10 0.12 0.17 0.23 0.26 0.30 0.33
1.06 0.98 1.02 0.99 0.95 0.95 0.91 0.95 0.92 0.71 0.50 0.35 0.24 0.14 0.07 0.05 0.04 0.03 0.03 0.03 0.02 0.01 0.00 0.00 0.02 0.02 0.09 0.24 0.27 0.16 0.10 0.09 0.10 0.09 0.07 0.05 0.06 0.07 0.09 0.14 0.17 0.20 0.23
1.17 1.18 1.16 1.11 1.04 0.98 0.98 1.09 1.19 1.02 0.77 0.54 0.48 0.38 0.23 0.12 0.09 0.08 0.06 0.05 0.04 0.02 0.01 0.01 0.02 0.03 0.03 0.04 0.07 0.11 0.11 0.12 0.15 0.13 0.10 0.07 0.05 0.04 0.05 0.08 0.10 0.13 0.14
1.13 1.07 1.19 1.26 1.18 1.20 1.23 1.29 1.35 1.32 1.06 0.77 0.81 0.92 0.69 0.46 0.23 0.12 0.09 0.06 0.04 0.04 0.01 0.01 0.02 0.02 0.02 0.03 0.02 0.04 0.07 0.11 0.11 0.10 0.08 0.06 0.05 0.03 0.03 0.03 0.05 0.07 0.09
1.40 1.31 1.37 1.48 1.37 1.35 1.34 1.35 1.32 1.48 1.48 1.21 1.03 1.17 0.95 0.78 0.67 0.31 0.15 0.13 0.12 0.08 0.05 0.03 0.02 0.03 0.03 0.03 0.02 0.01 0.03 0.05 0.07 0.07 0.06 0.05 0.04 0.03 0.03 0.05 0.06 0.07 0.07
1.63 1.51 1.49 1.50 1.49 1.49 1.38 1.28 1.33 1.55 1.80 1.70 1.47 1.18 0.93 0.75 0.77 0.65 0.40 0.26 0.22 0.15 0.10 0.08 0.06 0.04 0.03 0.03 0.03 0.03 0.02 0.02 0.06 0.09 0.08 0.06 0.04 0.03 0.04 0.05 0.06 0.07 0.07
1.66 1.52 1.46 1.45 1.48 1.53 1.48 1.50 1.57 1.73 1.87 1.98 1.85 1.52 1.21 0.98 0.69 0.64 0.65 0.54 0.38 0.24 0.17 0.13 0.10 0.08 0.06 0.05 0.07 0.09 0.05 0.02 0.05 0.11 0.12 0.10 0.07 0.05 0.04 0.04 0.05 0.06 0.05
1.49 1.47 1.45 1.38 1.30 1.34 1.42 1.56 1.75 1.79 1.85 1.97 1.92 1.61 1.35 1.17 1.00 0.86 0.70 0.68 0.68 0.46 0.33 0.25 0.18 0.12 0.12 0.11 0.10 0.12 0.08 0.05 0.05 0.09 0.11 0.10 0.08 0.06 0.05 0.04 0.05 0.07 0.06
1.31 1.31 1.33 1.26 1.15 1.12 1.21 1.37 1.54 1.56 1.60 1.68 1.70 1.56 1.41 1.21 1.11 1.08 0.96 0.86 0.77 0.53 0.41 0.33 0.27 0.23 0.20 0.19 0.19 0.17 0.10 0.09 0.08 0.09 0.09 0.09 0.08 0.08 0.10 0.10 0.10 0.11 0.10
1.15 1.07 1.09 1.09 1.06 1.03 1.04 1.11 1.17 1.22 1.29 1.40 1.45 1.39 1.28 1.23 1.21 1.10 1.01 1.02 0.89 0.72 0.52 0.34 0.29 0.29 0.26 0.24 0.30 0.28 0.17 0.14 0.11 0.10 0.09 0.08 0.06 0.07 0.09 0.11 0.15 0.20 0.19
0.92 0.87 0.94 1.01 1.07 0.98 0.89 0.93 0.94 0.97 1.06 1.13 1.22 1.31 1.27 1.24 1.24 1.22 1.14 1.04 0.96 0.84 0.70 0.46 0.33 0.27 0.28 0.27 0.30 0.29 0.24 0.18 0.14 0.13 0.12 0.09 0.06 0.06 0.07 0.08 0.09 0.11 0.11
0.84 0.84 0.87 0.87 0.86 0.83 0.85 0.91 0.96 1.01 0.99 0.99 1.05 1.16 1.21 1.25 1.33 1.29 1.23 1.17 1.02 0.89 0.80 0.60 0.44 0.33 0.34 0.30 0.31 0.26 0.26 0.24 0.17 0.13 0.11 0.10 0.08 0.07 0.06 0.07 0.06 0.05 0.04
0.65 0.68 0.66 0.69 0.77 0.76 0.75 0.82 0.84 0.83 0.87 0.93 0.95 0.95 1.05 1.17 1.22 1.25 1.24 1.19 1.14 1.02 0.84 0.72 0.50 0.39 0.40 0.38 0.39 0.31 0.27 0.25 0.23 0.20 0.16 0.14 0.11 0.10 0.07 0.06 0.05 0.04 0.03
0.44 0.51 0.54 0.53 0.66 0.80 0.83 0.84 0.82 0.75 0.72 0.72 0.75 0.77 0.85 0.90 0.95 1.05 1.15 1.11 1.10 1.07 0.94 0.83 0.66 0.51 0.48 0.44 0.48 0.45 0.39 0.36 0.36 0.40 0.39 0.28 0.20 0.16 0.13 0.09 0.06 0.04 0.02
0.33 0.38 0.51 0.49 0.52 0.67 0.78 0.76 0.69 0.67 0.66 0.65 0.66 0.66 0.67 0.75 0.84 0.85 0.93 1.02 1.04 1.00 0.94 0.83 0.81 0.73 0.59 0.49 0.48 0.47 0.48 0.54 0.51 0.50 0.56 0.48 0.35 0.26 0.19 0.15 0.10 0.06 0.04
0.36 0.35 0.35 0.37 0.42 0.50 0.62 0.62 0.58 0.57 0.54 0.56 0.61 0.62 0.60 0.63 0.68 0.73 0.76 0.85 0.94 0.96 0.91 0.82 0.77 0.75 0.67 0.59 0.51 0.51 0.60 0.69 0.68 0.58 0.58 0.57 0.51 0.40 0.32 0.26 0.19 0.13 0.10
0.22 0.24 0.21 0.22 0.26 0.33 0.37 0.38 0.42 0.46 0.49 0.52 0.54 0.55 0.55 0.51 0.51 0.58 0.57 0.67 0.76 0.85 0.88 0.88 0.83 0.75 0.66 0.59 0.54 0.54 0.59 0.72 0.75 0.73 0.67 0.59 0.52 0.45 0.39 0.32 0.26 0.22 0.20
0.09 0.14 0.14 0.15 0.19 0.21 0.24 0.22 0.25 0.35 0.44 0.47 0.49 0.51 0.52 0.48 0.45 0.41 0.39 0.42 0.53 0.61 0.68 0.76 0.82 0.77 0.72 0.66 0.64 0.62 0.59 0.61 0.71 0.74 0.64 0.65 0.57 0.49 0.43 0.35 0.36 0.35 0.28
0.06 0.08 0.08 0.13 0.15 0.12 0.13 0.11 0.21 0.38 0.43 0.41 0.39 0.47 0.55 0.56 0.57 0.56 0.46 0.42 0.42 0.44 0.46 0.53 0.62 0.66 0.66 0.66 0.61 0.62 0.64 0.67 0.60 0.58 0.50 0.53 0.52 0.43 0.35 0.30 0.29 0.27 0.26
0.03 0.07 0.08 0.14 0.13 0.08 0.08 0.09 0.16 0.28 0.35 0.35 0.34 0.41 0.55 0.61 0.65 0.66 0.57 0.57 0.51 0.43 0.39 0.38 0.48 0.52 0.54 0.60 0.65 0.71 0.68 0.59 0.53 0.45 0.36 0.34 0.34 0.29 0.25 0.23 0.21 0.17 0.16
0.02 0.05 0.08 0.10 0.06 0.04 0.05 0.07 0.13 0.28 0.37 0.38 0.32 0.38 0.54 0.62 0.71 0.72 0.65 0.67 0.60 0.44 0.39 0.41 0.39 0.39 0.43 0.51 0.56 0.61 0.61 0.53 0.48 0.45 0.31 0.23 0.23 0.21 0.19 0.17 0.14 0.11 0.09
0.01 0.02 0.04 0.06 0.05 0.05 0.04 0.04 0.10 0.19 0.28 0.35 0.34 0.36 0.57 0.63 0.64 0.61 0.58 0.73 0.73 0.56 0.39 0.37 0.39 0.44 0.44 0.52 0.66 0.74 0.80 0.71 0.54 0.48 0.36 0.28 0.26 0.24 0.25 0.21 0.14 0.08 0.05